| time (UTC) | temp C | wind direction | speed KPH | gust KPH | rain 1hr cm | rain 24hr cm | rain mn cm | humidity % | barometer mb |
| 20260507111530 | 9 | 58 | 16.1 | 29.0 | 0.00 | 0.00 | 0.00 | 82 | 1014.9 |
| 20260507110527 | 9 | 59 | 14.5 | 30.6 | 0.00 | 0.00 | 0.00 | 83 | 1014.5 |
| 20260507105527 | 9 | 52 | 12.9 | 30.6 | 0.00 | 0.03 | 0.00 | 83 | 1014.5 |
| 20260507104529 | 9 | 60 | 19.3 | 27.4 | 0.00 | 0.03 | 0.00 | 83 | 1014.5 |
| 20260507102527 | 9 | 50 | 16.1 | 30.6 | 0.00 | 0.05 | 0.00 | 83 | 1013.6 |
| 20260507101531 | 8 | 46 | 19.3 | 29.0 | 0.00 | 0.08 | 0.00 | 83 | 1013.6 |
| 20260507100527 | 9 | 50 | 17.7 | 29.0 | 0.00 | 0.10 | 0.00 | 83 | 1013.6 |
| 20260507094530 | 9 | 63 | 19.3 | 29.0 | 0.00 | 0.13 | 0.00 | 83 | 1013.6 |
| 20260507092527 | 9 | 61 | 19.3 | 32.2 | 0.00 | 0.15 | 0.00 | 83 | 1013.6 |
| 20260507091530 | 9 | 66 | 19.3 | 27.4 | 0.00 | 0.18 | 0.00 | 83 | 1013.6 |
| 20260507090527 | 8 | 59 | 17.7 | 29.0 | 0.00 | 0.20 | 0.00 | 84 | 1013.0 |
| 20260507085528 | 8 | 50 | 19.3 | 35.4 | 0.00 | 0.23 | 0.00 | 84 | 1013.0 |
| 20260507083527 | 8 | 65 | 24.1 | 35.4 | 0.00 | 0.30 | 0.00 | 84 | 1013.0 |
| 20260507082527 | 8 | 69 | 20.9 | 32.2 | 0.00 | 0.36 | 0.00 | 84 | 1013.0 |
| 20260507080527 | 8 | 51 | 24.1 | 29.0 | 0.00 | 0.41 | 0.00 | 85 | 1012.7 |
| 20260507073527 | 8 | 45 | 16.1 | 27.4 | 0.00 | 0.48 | 0.00 | 85 | 1012.7 |
| 20260507071529 | 8 | 59 | 17.7 | 25.7 | 0.00 | 0.53 | 0.00 | 85 | 1012.7 |
| 20260507070527 | 8 | 54 | 16.1 | 25.7 | 0.00 | 0.56 | 0.00 | 85 | 1012.0 |
| 20260507065526 | 8 | 58 | 17.7 | 27.4 | 0.00 | 0.58 | 0.00 | 85 | 1012.0 |
| 20260507064529 | 8 | 24 | 16.1 | 29.0 | 0.00 | 0.58 | 0.00 | 85 | 1012.0 |
| 20260507063526 | 8 | 30 | 17.7 | 29.0 | 0.00 | 0.61 | 0.00 | 85 | 1012.0 |
| 20260507062526 | 8 | 26 | 17.7 | 27.4 | 0.00 | 0.64 | 0.00 | 85 | 1012.0 |
| 20260507061530 | 8 | 42 | 14.5 | 29.0 | 0.00 | 0.66 | 0.00 | 86 | 1012.0 |
| 20260507060527 | 8 | 33 | 14.5 | 25.7 | 0.00 | 0.66 | 0.00 | 86 | 1011.5 |
| 20260507055526 | 8 | 37 | 12.9 | 27.4 | 0.00 | 0.69 | 0.00 | 86 | 1011.5 |
| 20260507054529 | 8 | 36 | 12.9 | 30.6 | 0.00 | 0.69 | 0.00 | 86 | 1011.5 |
| 20260507053526 | 8 | 26 | 17.7 | 27.4 | 0.00 | 0.71 | 0.00 | 86 | 1011.5 |
| 20260507052526 | 8 | 38 | 14.5 | 27.4 | 0.00 | 0.74 | 0.00 | 86 | 1011.5 |
| 20260507051529 | 7 | 57 | 17.7 | 25.7 | 0.00 | 0.74 | 0.00 | 86 | 1011.5 |
| 20260507050528 | 7 | 66 | 16.1 | 24.1 | 0.00 | 0.76 | 0.00 | 86 | 1011.0 |
| 20260507045527 | 7 | 52 | 14.5 | 24.1 | 0.00 | 0.79 | 0.00 | 86 | 1011.0 |
| 20260507043526 | 7 | 72 | 16.1 | 22.5 | 0.00 | 0.86 | 0.00 | 86 | 1011.0 |
| 20260507042528 | 7 | 81 | 16.1 | 25.7 | 0.00 | 0.89 | 0.00 | 86 | 1011.0 |
| 20260507041530 | 7 | 45 | 16.1 | 27.4 | 0.00 | 0.91 | 0.00 | 86 | 1011.0 |
| 20260507035527 | 7 | 46 | 17.7 | 27.4 | 0.00 | 0.99 | 0.00 | 86 | 1010.7 |
| 20260507034528 | 7 | 42 | 14.5 | 27.4 | 0.00 | 1.02 | 0.00 | 86 | 1010.7 |
| 20260507033528 | 7 | 42 | 14.5 | 24.1 | 0.00 | 1.04 | 0.00 | 86 | 1010.7 |
| 20260507031528 | 7 | 68 | 19.3 | 27.4 | 0.00 | 1.12 | 0.00 | 86 | 1010.7 |
| 20260507025527 | 7 | 66 | 20.9 | 27.4 | 0.00 | 1.22 | 0.00 | 86 | 1010.3 |
| 20260507024529 | 7 | 58 | 11.3 | 25.7 | 0.00 | 1.27 | 0.00 | 86 | 1010.3 |
| 20260507023526 | 7 | 54 | 12.9 | 27.4 | 0.00 | 1.32 | 0.00 | 86 | 1010.3 |
| 20260507022525 | 7 | 53 | 11.3 | 29.0 | 0.00 | 1.37 | 0.00 | 86 | 1010.3 |
| 20260507021530 | 7 | 55 | 16.1 | 27.4 | 0.00 | 1.42 | 0.00 | 86 | 1010.3 |
| 20260507015526 | 7 | 45 | 16.1 | 27.4 | 0.00 | 1.50 | 0.00 | 86 | 1010.1 |
| 20260507014528 | 7 | 37 | 17.7 | 29.0 | 0.00 | 1.52 | 0.00 | 86 | 1010.1 |
| 20260507012526 | 8 | 21 | 17.7 | 27.4 | 0.00 | 1.55 | 0.00 | 86 | 1010.1 |
| 20260507011528 | 8 | 49 | 14.5 | 30.6 | 0.00 | 1.57 | 0.00 | 86 | 1010.1 |
| 20260507010526 | 8 | 42 | 16.1 | 32.2 | 0.00 | 1.60 | 0.00 | 86 | 1009.8 |
| 20260507005526 | 8 | 57 | 19.3 | 27.4 | 0.00 | 1.60 | 0.00 | 86 | 1009.8 |
| 20260507004529 | 8 | 45 | 20.9 | 29.0 | 0.00 | 1.63 | 0.00 | 86 | 1009.8 |
| 20260507003526 | 8 | 44 | 20.9 | 29.0 | 0.00 | 1.63 | 0.00 | 86 | 1009.8 |
| 20260507002526 | 8 | 30 | 20.9 | 27.4 | 0.00 | 1.63 | 0.00 | 86 | 1009.8 |
| 20260507001529 | 8 | 41 | 20.9 | 32.2 | 0.00 | 1.63 | 0.00 | 86 | 1009.8 |
| 20260506235526 | 8 | 40 | 20.9 | 35.4 | 0.00 | 1.65 | 0.00 | 86 | 1009.3 |
| 20260506234529 | 8 | 45 | 24.1 | 32.2 | 0.00 | 1.65 | 0.00 | 86 | 1009.3 |
| 20260506233526 | 8 | 44 | 22.5 | 35.4 | 0.00 | 1.65 | 0.00 | 86 | 1009.3 |
| 20260506231529 | 8 | 30 | 22.5 | 32.2 | 0.00 | 1.65 | 0.00 | 86 | 1009.3 |
| 20260506230527 | 9 | 39 | 22.5 | 24.1 | 0.00 | 1.65 | 0.00 | 86 | 1008.8 |
| 20260506225527 | 9 | 37 | 22.5 | 25.7 | 0.00 | 1.65 | 0.00 | 86 | 1008.8 |
| 20260506224529 | 10 | 22 | 25.7 | 25.7 | 0.00 | 1.65 | 0.00 | 87 | 1008.8 |
| 20260506223527 | 10 | 26 | 22.5 | 27.4 | 0.00 | 1.65 | 0.00 | 87 | 1008.8 |
| 20260506222527 | 10 | 19 | 22.5 | 29.0 | 0.00 | 1.65 | 0.00 | 87 | 1008.7 |
| 20260506221528 | 10 | 34 | 16.1 | 30.6 | 0.00 | 1.65 | 0.00 | 87 | 1008.7 |
| 20260506220528 | 10 | 45 | 12.9 | 30.6 | 0.00 | 1.65 | 0.00 | 87 | 1008.7 |
| 20260506215527 | 10 | 37 | 11.3 | 32.2 | 0.00 | 1.65 | 0.00 | 87 | 1008.7 |
| 20260506214529 | 10 | 33 | 14.5 | 27.4 | 0.00 | 1.65 | 0.00 | 87 | 1008.7 |
| 20260506213530 | 10 | 42 | 12.9 | 32.2 | 0.00 | 1.65 | 0.00 | 87 | 1008.7 |
| 20260506212526 | 10 | 41 | 11.3 | 30.6 | 0.00 | 1.65 | 0.00 | 87 | 1008.7 |
| 20260506211530 | 10 | 59 | 19.3 | 27.4 | 0.00 | 1.65 | 0.00 | 88 | 1008.7 |
| 20260506210529 | 11 | 66 | 19.3 | 25.7 | 0.00 | 1.65 | 0.00 | 88 | 1008.5 |
| 20260506205528 | 11 | 70 | 16.1 | 24.1 | 0.00 | 1.65 | 0.00 | 88 | 1008.5 |
| 20260506204530 | 11 | 52 | 14.5 | 29.0 | 0.00 | 1.65 | 0.00 | 88 | 1008.5 |
| 20260506202526 | 11 | 50 | 12.9 | 29.0 | 0.00 | 1.65 | 0.00 | 89 | 1008.5 |
| 20260506201528 | 11 | 27 | 12.9 | 27.4 | 0.00 | 1.65 | 0.00 | 89 | 1008.5 |
| 20260506200528 | 11 | 29 | 11.3 | 27.4 | 0.00 | 1.65 | 0.00 | 89 | 1008.0 |
| 20260506195527 | 11 | 22 | 11.3 | 27.4 | 0.00 | 1.65 | 0.00 | 89 | 1008.0 |
| 20260506193526 | 11 | 53 | 14.5 | 27.4 | 0.00 | 1.65 | 0.00 | 88 | 1008.0 |
| 20260506192526 | 11 | 56 | 19.3 | 27.4 | 0.00 | 1.65 | 0.00 | 88 | 1008.0 |
| 20260506190527 | 11 | 63 | 12.9 | 24.1 | 0.00 | 1.65 | 0.00 | 88 | 1007.3 |
| 20260506185527 | 11 | 50 | 14.5 | 24.1 | 0.00 | 1.65 | 0.00 | 88 | 1007.3 |
| 20260506184530 | 11 | 41 | 19.3 | 24.1 | 0.00 | 1.65 | 0.00 | 88 | 1007.3 |
| 20260506183527 | 11 | 45 | 17.7 | 22.5 | 0.00 | 1.65 | 0.00 | 88 | 1007.3 |
| 20260506182526 | 11 | 32 | 14.5 | 25.7 | 0.00 | 1.65 | 0.00 | 88 | 1007.3 |
| 20260506181528 | 11 | 46 | 12.9 | 24.1 | 0.00 | 1.65 | 0.00 | 88 | 1007.3 |
| 20260506180526 | 11 | 48 | 12.9 | 20.9 | 0.00 | 1.65 | 0.00 | 88 | 1007.1 |
| 20260506175527 | 11 | 40 | 17.7 | 24.1 | 0.00 | 1.65 | 0.00 | 88 | 1007.1 |
| 20260506174530 | 12 | 60 | 16.1 | 24.1 | 0.00 | 1.65 | 0.00 | 89 | 1007.1 |
| 20260506173526 | 12 | 42 | 19.3 | 24.1 | 0.00 | 1.65 | 0.00 | 89 | 1007.1 |
| 20260506172527 | 12 | 48 | 16.1 | 22.5 | 0.00 | 1.65 | 0.00 | 88 | 1007.1 |
| 20260506171528 | 12 | 52 | 16.1 | 20.9 | 0.00 | 1.68 | 0.00 | 89 | 1007.1 |
| 20260506170528 | 12 | 60 | 14.5 | 19.3 | 0.00 | 1.68 | 0.00 | 88 | 1007.2 |
| 20260506165527 | 12 | 55 | 14.5 | 17.7 | 0.00 | 1.68 | 0.00 | 88 | 1007.2 |
| 20260506164530 | 12 | 34 | 16.1 | 17.7 | 0.00 | 1.68 | 0.00 | 88 | 1007.2 |
| 20260506163528 | 12 | 24 | 14.5 | 20.9 | 0.00 | 1.68 | 0.00 | 89 | 1007.2 |
| 20260506162528 | 12 | 31 | 14.5 | 17.7 | 0.00 | 1.68 | 0.00 | 89 | 1007.2 |
| 20260506161529 | 12 | 40 | 16.1 | 19.3 | 0.00 | 1.68 | 0.00 | 89 | 1007.2 |
| 20260506160527 | 12 | 23 | 16.1 | 22.5 | 0.00 | 1.68 | 0.00 | 89 | 1007.3 |
| 20260506155527 | 12 | 39 | 14.5 | 25.7 | 0.00 | 1.68 | 0.00 | 89 | 1007.3 |
| 20260506154530 | 12 | 40 | 9.7 | 22.5 | 0.00 | 1.68 | 0.00 | 89 | 1007.3 |
| 20260506153528 | 12 | 44 | 11.3 | 25.7 | 0.00 | 1.68 | 0.00 | 89 | 1007.3 |
| 20260506152527 | 12 | 48 | 12.9 | 24.1 | 0.00 | 1.68 | 0.00 | 90 | 1007.3 |
| 20260506151530 | 12 | 40 | 12.9 | 25.7 | 0.00 | 1.68 | 0.00 | 90 | 1007.3 |
| 20260506150528 | 12 | 37 | 14.5 | 19.3 | 0.00 | 1.68 | 0.00 | 90 | 1007.1 |
| 20260506145527 | 12 | 25 | 12.9 | 19.3 | 0.00 | 1.68 | 0.00 | 90 | 1007.1 |
| 20260506144529 | 12 | 26 | 12.9 | 19.3 | 0.00 | 1.68 | 0.00 | 91 | 1007.1 |
| 20260506143527 | 12 | 36 | 14.5 | 20.9 | 0.00 | 1.68 | 0.00 | 91 | 1007.1 |
| 20260506142527 | 12 | 30 | 14.5 | 20.9 | 0.00 | 1.68 | 0.00 | 91 | 1007.1 |
| 20260506140527 | 12 | 21 | 16.1 | 17.7 | 0.00 | 1.68 | 0.00 | 91 | 1006.9 |
| 20260506135527 | 12 | 17 | 16.1 | 19.3 | 0.00 | 1.68 | 0.00 | 91 | 1006.9 |
| 20260506134530 | 12 | 10 | 11.3 | 17.7 | 0.00 | 1.68 | 0.00 | 91 | 1006.9 |
| 20260506133528 | 12 | 9 | 9.7 | 17.7 | 0.00 | 1.68 | 0.00 | 91 | 1006.9 |
| 20260506132528 | 12 | 3 | 11.3 | 19.3 | 0.00 | 1.68 | 0.00 | 92 | 1006.9 |
| 20260506131530 | 12 | 1 | 12.9 | 17.7 | 0.00 | 1.68 | 0.00 | 92 | 1006.9 |
| 20260506130528 | 12 | 17 | 12.9 | 25.7 | 0.00 | 1.68 | 0.00 | 92 | 1006.9 |
| 20260506125527 | 12 | 11 | 12.9 | 22.5 | 0.00 | 1.68 | 0.00 | 92 | 1006.9 |
| 20260506124531 | 12 | 11 | 11.3 | 25.7 | 0.00 | 1.68 | 0.00 | 92 | 1006.9 |
| 20260506121530 | 12 | 33 | 8.0 | 22.5 | 0.00 | 1.68 | 0.00 | 92 | 1006.9 |
| 20260506120528 | 12 | 35 | 6.4 | 24.1 | 0.00 | 1.68 | 0.00 | 92 | 1006.3 |
| 20260506115526 | 12 | 26 | 8.0 | 25.7 | 0.03 | 1.68 | 0.00 | 92 | 1006.3 |
| 20260506112527 | 12 | 11 | 12.9 | 22.5 | 0.05 | 1.65 | 0.00 | 92 | 1006.3 |